Home   Weather   Cedar Rapids   Past weeks

Flag for USA Past Weather in Cedar Rapids, Iowa, USA — Yesterday and Last 2 Weeks

Now
66 °F

Passing clouds.


Feels Like: 66 °F
Forecast: 57 / 76 °F
Wind: 21 mph from West

Location: Cedar Rapids Municipal Airport

Current Time: Sep 25, 2016 at 5:33:44 PM

Latest Report: Sep 25, 2016 at 4:52 PM


Visibility: 10 mi

Pressure: 29.98 "Hg

Humidity: 65%

Dew Point: 54 °F

Location of Cedar RapidsLocation

Past Weather in Cedar Rapids — Graph

°F

Cedar Rapids Temperature Yesterday

Maximum temperature yesterday: 80 °F (at 2:52 PM)
Minimum temperature yesterday: 66 °F (at 1:52 AM)
Average temperature yesterday: 71 °F

High & Low Weather Summary for the Past Weeks

 TemperatureHumidityPressure
High88 °F (Sep 19, 2:52 PM)100% (Sep 11, 12:52 AM)30.27 "Hg (Sep 11, 12:52 AM)
Low49 °F (Sep 11, 6:52 AM)42% (Sep 18, 5:52 PM)29.85 "Hg (Sep 16, 9:52 AM)
Average68 °F85%30.03 "Hg
* Reported Sep 10 3:52 PM — Sep 25 3:52 PM, Cedar Rapids, Weather by CustomWeather, © 2016

Note: Actual official high and low records may vary slightly from our data, if they occured in-between our weather recording intervals... More about our weather records

Advertising

Cedar Rapids Weather History for the Previous 24 Hours

Scroll right to see more
 ConditionsComfort  
Time TempWeatherWind HumidityBarometerVisibility
3:52 PM
Sun, Sep 25
68 °FScattered clouds.15 mph68%29.97 "Hg10 mi
2:52 PM71 °FPassing clouds.14 mph78%29.95 "Hg10 mi
1:52 PM74 °FBroken clouds.13 mph82%29.96 "Hg10 mi
1:02 PM73 °FCloudy.16 mph88%29.99 "Hg10 mi
12:52 PM74 °FCloudy.13 mph85%29.97 "Hg10 mi
11:52 AM75 °FBroken clouds.17 mph82%29.98 "Hg10 mi
10:52 AM75 °FPartly sunny.15 mph79%29.97 "Hg10 mi
9:52 AM75 °FPassing clouds.15 mph82%29.97 "Hg9 mi
8:52 AM72 °FFog.9 mph91%29.96 "Hg6 mi
7:52 AM69 °FFog.6 mph100%29.96 "Hg3 mi
6:52 AM67 °FFog.6 mph100%29.95 "Hg5 mi
5:52 AM67 °FFog.3 mph100%29.96 "Hg4 mi
4:52 AM68 °FFog.No wind100%29.97 "Hg5 mi
3:52 AM68 °FFog.3 mph100%29.98 "Hg6 mi
2:52 AM69 °FMostly cloudy.6 mph100%29.99 "Hg7 mi
1:52 AM69 °FFog.8 mph100%29.99 "Hg6 mi
12:52 AM70 °FFog.8 mph97%30.01 "Hg6 mi
11:52 PM
Sat, Sep 24
69 °FFog.7 mph100%30.02 "Hg5 mi
10:52 PM69 °FFog.8 mph100%30.02 "Hg5 mi
9:52 PM70 °FFog.6 mph97%30.03 "Hg6 mi
8:52 PM70 °FFog.10 mph97%29.99 "Hg6 mi
7:52 PM72 °FFog.12 mph93%30.01 "Hg6 mi
6:52 PM76 °FSunny.9 mph82%30.00 "Hg7 mi
5:52 PM79 °FSunny.10 mph74%30.00 "Hg8 mi
Weather by CustomWeather, © 2016

See weather overviewHow to use our weather pages